Home   Weather   Bühl   Past weeks

Flag for Germany Past Weather in Bühl, Baden-Württemberg, Germany — Yesterday and Last 2 Weeks

Now
21 °F

Ice fog.


Feels Like: 16 °F
Forecast: 15 / 29 °F
Wind: 3 mph from North

Location: Karlsruhe - Baden Wurttemberg

Current Time: Jan 24, 2017 at 12:07:05 am

Latest Report: Jan 23, 2017 at 10:50 pm


Visibility: 1 mi

Pressure: 30.30 "Hg

Humidity: 100%

Dew Point: 21 °F

Location of BühlLocation

Past Weather in Bühl — Graph

°F

Bühl Temperature Yesterday

Maximum temperature yesterday: 23 °F (at 12:50 pm)
Minimum temperature yesterday: 19 °F (at 5:50 am)
Average temperature yesterday: 22 °F

High & Low Weather Summary for the Past Weeks

 TemperatureHumidityPressure
High46 °F (Jan 12, 11:20 pm)100% (Jan 8, 10:20 pm)30.54 "Hg (Jan 8, 10:20 pm)
Low10 °F (Jan 21, 7:20 am)55% (Jan 17, 3:50 pm)29.33 "Hg (Jan 12, 11:50 pm)
Average29 °F87%30.20 "Hg
* Reported Jan 8 10:20 pm — Jan 23 10:50 pm, Bühl, Weather by CustomWeather, © 2017

Note: Actual official high and low records may vary slightly from our data, if they occured in-between our weather recording intervals... More about our weather records

Advertising

Bühl Weather History for the Previous 24 Hours

Scroll right to see more
 ConditionsComfort  
Time TempWeatherWind HumidityBarometerVisibility
10:50 pm
Mon, Jan 23
21 °FIce fog.3 mph100%30.30 "Hg1 mi
10:20 pm21 °FIce fog.3 mph100%30.30 "Hg1 mi
9:50 pm21 °FIce fog.3 mph100%30.30 "Hg2 mi
9:20 pm21 °FIce fog.5 mph100%30.30 "Hg1 mi
8:50 pm23 °FIce fog.5 mph100%30.30 "Hg1 mi
8:20 pm23 °FIce fog.2 mph100%30.30 "Hg1 mi
7:50 pm23 °FIce fog.3 mph100%30.30 "Hg1 mi
7:20 pm23 °FIce fog.5 mph100%30.30 "Hg2 mi
6:50 pm23 °FLow clouds.5 mph100%30.30 "Hg2 mi
6:20 pm23 °FIce fog.3 mph100%30.30 "Hg2 mi
5:50 pm23 °FIce fog.2 mph100%30.30 "Hg2 mi
5:20 pm23 °FIce fog.3 mph100%30.30 "Hg1 mi
4:50 pm23 °FIce fog.3 mph100%30.30 "Hg1 mi
4:20 pm23 °FIce fog.3 mph100%30.30 "Hg1 mi
3:50 pm23 °FIce fog.5 mph100%30.27 "Hg1 mi
3:20 pm23 °FIce fog.3 mph100%30.30 "Hg1 mi
2:50 pm23 °FIce fog.2 mph100%30.27 "Hg1 mi
2:20 pm23 °FIce fog.3 mph100%30.27 "Hg1 mi
1:50 pm23 °FIce fog.3 mph100%30.30 "Hg1 mi
1:20 pm23 °FIce fog.3 mph100%30.30 "Hg1 mi
12:50 pm23 °FIce fog.3 mph100%30.30 "Hg1 mi
12:20 pm21 °FIce fog.5 mph100%30.30 "Hg1 mi
11:50 am21 °FIce fog.2 mph100%30.30 "Hg1 mi
11:20 am21 °FIce fog.1 mph100%30.33 "Hg1 mi
10:50 am21 °FIce fog.2 mph100%30.33 "Hg1 mi
10:20 am21 °FIce fog.2 mph93%30.33 "Hg1 mi
9:50 am19 °FIce fog.5 mph100%30.30 "Hg1 mi
9:20 am19 °FIce fog.3 mph100%30.30 "Hg2 mi
8:50 am19 °FIce fog.3 mph100%30.30 "Hg2 mi
8:20 am19 °FIce fog.5 mph100%30.30 "Hg1 mi
7:50 am19 °FIce fog.3 mph100%30.30 "Hg1 mi
7:20 am21 °FIce fog.6 mph93%30.30 "Hg1 mi
6:50 am21 °FIce fog.2 mph100%30.30 "Hg1 mi
6:20 am19 °FIce fog.2 mph100%30.30 "Hg1 mi
5:50 am19 °FIce fog.6 mph100%30.30 "Hg1 mi
5:20 am21 °FLow clouds.5 mph100%30.30 "Hg1 mi
4:50 am21 °FIce fog.3 mph100%30.30 "Hg1 mi
Weather by CustomWeather, © 2017

See weather overviewHow to use our weather pages